Weather History for Lakeview AWS, OR

Change the Weather History Date:

Sunday, March 24, 2013

  Actual Average Record
Temperature  
Mean Temperature 37 °F -  
Max Temperature 55 °F 50 °F 70 °F (1960)
Min Temperature 19 °F 28 °F 14 °F (1935)
Degree Days  
Heating Degree Days 28    
Moisture  
Dew Point 23 °F    
Average Humidity 60    
Maximum Humidity 93    
Minimum Humidity 30    
Precipitation  
Precipitation 0.00 in - - ()
Sea Level Pressure  
Sea Level Pressure 30.08 in    
Wind  
Wind Speed 6 mph (WNW)    
Max Wind Speed 9 mph    
Max Gust Speed -    
Visibility 10 miles    
Events      
Averages and records for this station are not official NWS values.
T = Trace of Precipitation, MM = Missing Value Source: NWS Daily Summary

Daily Weather History Graph

Daily Weather History Graph

Search for Another Location

Airport:

Trip Planner

Search our weather history database for the weather conditions in past years. The results will help you decide how hot, cold, wet, or windy it might be!

Date:

Astronomy

Mar. 24, 2013 Rise Set
Actual Time 6:57 AM PDT 7:18 PM PDT
Civil Twilight 6:29 AM PDT 7:46 PM PDT
Nautical Twilight 5:56 AM PDT 8:19 PM PDT
Astronomical Twilight 5:22 AM PDT 8:53 PM PDT
Moon 4:50 PM PDT (3/24) 5:13 AM PDT (3/24)
Length of Visible Light 13h 17m
Length of Day
12h 21m
Waxing Gibbous, 92% of the Moon is Illuminated
Mar 24
Waxing Gibbous
Mar 27
Full
Apr 2
Last Quarter
Apr 10
New
Apr 18
First Quarter

Hourly Weather History & Observations

Time (PDT) Temp. Windchill Dew Point Humidity Pressure Visibility Wind Dir Wind Speed Gust Speed Precip Events Conditions
12:35 AM 23.0 °F 13.9 °F 17.6 °F 80% 30.13 in 10.0 mi North 8.1 mph - N/A   Unknown
12:55 AM 21.2 °F 12.6 °F 17.6 °F 86% 30.13 in 10.0 mi NNW 6.9 mph - N/A   Unknown
1:15 AM 21.2 °F 12.6 °F 15.8 °F 80% 30.13 in 10.0 mi NNW 6.9 mph - N/A   Unknown
1:35 AM 19.4 °F 11.5 °F 15.8 °F 86% 30.13 in 10.0 mi North 5.8 mph - N/A   Unknown
1:55 AM 19.4 °F 9.5 °F 17.6 °F 93% 30.13 in 10.0 mi NW 8.1 mph - N/A   Unknown
2:15 AM 19.4 °F 8.6 °F 17.6 °F 93% 30.13 in 10.0 mi NNW 9.2 mph - N/A   Unknown
2:35 AM 21.2 °F 12.6 °F 17.6 °F 86% 30.13 in 10.0 mi NNW 6.9 mph - N/A   Unknown
2:55 AM 21.2 °F 13.6 °F 17.6 °F 86% 30.13 in 10.0 mi North 5.8 mph - N/A   Unknown
3:15 AM 19.4 °F 11.5 °F 17.6 °F 93% 30.12 in 10.0 mi North 5.8 mph - N/A   Unknown
3:35 AM 21.2 °F 14.9 °F 17.6 °F 86% 30.13 in 10.0 mi NW 4.6 mph - N/A   Unknown
3:55 AM 23.0 °F - 19.4 °F 86% 30.13 in 10.0 mi Calm Calm - N/A   Unknown
4:15 AM 23.0 °F 17.0 °F 19.4 °F 86% 30.13 in 10.0 mi North 4.6 mph - N/A   Unknown
4:35 AM 23.0 °F 15.8 °F 19.4 °F 86% 30.14 in 10.0 mi North 5.8 mph - N/A   Unknown
4:55 AM 23.0 °F 18.4 °F 19.4 °F 86% 30.13 in 10.0 mi North 3.5 mph - N/A   Unknown
5:15 AM 23.0 °F - 19.4 °F 86% 30.12 in 10.0 mi Calm Calm - N/A   Unknown
5:35 AM 23.0 °F 18.4 °F 19.4 °F 86% 30.12 in 10.0 mi NNW 3.5 mph - N/A   Unknown
5:55 AM 21.2 °F 13.6 °F 19.4 °F 93% 30.12 in 10.0 mi NNW 5.8 mph - N/A   Unknown
6:15 AM 21.2 °F 13.6 °F 17.6 °F 86% 30.12 in 10.0 mi North 5.8 mph - N/A   Unknown
6:35 AM 19.4 °F 12.8 °F 17.6 °F 93% 30.12 in 10.0 mi NNW 4.6 mph - N/A   Unknown
6:55 AM 19.4 °F 12.8 °F 17.6 °F 93% 30.12 in 10.0 mi NNW 4.6 mph - N/A   Unknown
7:15 AM 19.4 °F 10.4 °F 15.8 °F 86% 30.13 in 10.0 mi NNW 6.9 mph - N/A   Unknown
7:35 AM 19.4 °F 12.8 °F 17.6 °F 93% 30.13 in 10.0 mi North 4.6 mph - N/A   Unknown
7:55 AM 24.8 °F 20.5 °F 21.2 °F 86% 30.13 in 10.0 mi North 3.5 mph - N/A   Unknown
8:15 AM 28.4 °F - 21.2 °F 74% 30.13 in 10.0 mi Calm Calm - N/A   Unknown
8:35 AM 30.2 °F 26.7 °F 23.0 °F 75% 30.13 in 10.0 mi NNW 3.5 mph - N/A   Unknown
8:55 AM 33.8 °F - 21.2 °F 60% 30.13 in 10.0 mi Calm Calm - N/A   Unknown
9:15 AM 37.4 °F - 23.0 °F 56% 30.14 in 10.0 mi Calm Calm - N/A   Unknown
9:35 AM 37.4 °F - 21.2 °F 52% 30.14 in 10.0 mi Calm Calm - N/A   Unknown
9:55 AM 37.4 °F - 21.2 °F 52% 30.13 in 10.0 mi Calm Calm - N/A   Unknown
10:15 AM 39.2 °F 35.9 °F 21.2 °F 49% 30.14 in 10.0 mi South 4.6 mph - N/A   Unknown
10:35 AM 42.8 °F 38.6 °F 21.2 °F 42% 30.13 in 10.0 mi SSE 6.9 mph - N/A   Unknown
10:55 AM 44.6 °F 42.2 °F 21.2 °F 39% 30.12 in 10.0 mi ESE 4.6 mph - N/A   Unknown
11:15 AM 42.8 °F 40.1 °F 21.2 °F 42% 30.12 in 10.0 mi SSE 4.6 mph - N/A   Unknown
11:35 AM 46.4 °F 43.5 °F 19.4 °F 34% 30.11 in 10.0 mi South 5.8 mph - N/A   Unknown
11:55 AM 48.2 °F - 21.2 °F 34% 30.11 in 10.0 mi South 5.8 mph - N/A   Unknown
12:15 PM 48.2 °F - 23.0 °F 37% 30.11 in 10.0 mi SW 4.6 mph - N/A   Unknown
12:35 PM 48.2 °F - 21.2 °F 34% 30.10 in 10.0 mi South 5.8 mph - N/A   Unknown
12:55 PM 48.2 °F - 21.2 °F 34% 30.10 in 10.0 mi South 6.9 mph - N/A   Unknown
1:15 PM 48.2 °F - 23.0 °F 37% 30.09 in 10.0 mi South 3.5 mph - N/A   Unknown
1:35 PM 50.0 °F - 23.0 °F 35% 30.08 in 10.0 mi East 4.6 mph - N/A   Unknown
1:55 PM 51.8 °F - 21.2 °F 30% 30.07 in 10.0 mi South 6.9 mph - N/A   Unknown
2:15 PM 51.8 °F - 21.2 °F 30% 30.06 in 10.0 mi SSE 8.1 mph - N/A   Unknown
2:35 PM 53.6 °F - 24.8 °F 33% 30.05 in 10.0 mi SE 6.9 mph - N/A   Unknown
2:55 PM 55.4 °F - 24.8 °F 31% 30.04 in 10.0 mi SSW 5.8 mph - N/A   Unknown
3:15 PM 55.4 °F - 24.8 °F 31% 30.04 in 10.0 mi SSE 9.2 mph - N/A   Unknown
3:35 PM 53.6 °F - 24.8 °F 33% 30.03 in 10.0 mi SSE 9.2 mph - N/A   Unknown
3:55 PM 53.6 °F - 26.6 °F 35% 30.03 in 10.0 mi SSE 8.1 mph - N/A   Unknown
4:15 PM 55.4 °F - 26.6 °F 33% 30.02 in 10.0 mi South 8.1 mph - N/A   Unknown
4:35 PM 53.6 °F - 26.6 °F 35% 30.02 in 10.0 mi South 8.1 mph - N/A   Unknown
4:55 PM 53.6 °F - 24.8 °F 33% 30.01 in 10.0 mi South 9.2 mph - N/A   Unknown
5:15 PM 53.6 °F - 26.6 °F 35% 30.01 in 10.0 mi South 6.9 mph - N/A   Unknown
5:35 PM 53.6 °F - 26.6 °F 35% 30.01 in 10.0 mi SSW 9.2 mph - N/A   Unknown
5:55 PM 53.6 °F - 24.8 °F 33% 30.01 in 10.0 mi SW 8.1 mph - N/A   Unknown
6:15 PM 53.6 °F - 24.8 °F 33% 30.01 in 10.0 mi West 9.2 mph - N/A   Unknown
6:35 PM 51.8 °F - 26.6 °F 38% 30.00 in 10.0 mi West 5.8 mph - N/A   Unknown
6:55 PM 50.0 °F - 26.6 °F 40% 29.99 in 10.0 mi West 6.9 mph - N/A   Unknown
7:15 PM 48.2 °F - 28.4 °F 46% 30.00 in 10.0 mi West 6.9 mph - N/A   Unknown
7:35 PM 46.4 °F 42.9 °F 28.4 °F 50% 30.00 in 10.0 mi West 6.9 mph - N/A   Unknown
7:55 PM 46.4 °F 43.5 °F 28.4 °F 50% 30.00 in 10.0 mi West 5.8 mph - N/A   Unknown
8:15 PM 44.6 °F 41.4 °F 28.4 °F 53% 30.00 in 10.0 mi NNW 5.8 mph - N/A   Unknown
8:35 PM 42.8 °F 40.1 °F 28.4 °F 57% 30.01 in 10.0 mi NW 4.6 mph - N/A   Unknown
8:55 PM 44.6 °F 42.2 °F 28.4 °F 53% 30.01 in 10.0 mi WNW 4.6 mph - N/A   Unknown
9:15 PM 42.8 °F 39.3 °F 30.2 °F 61% 30.01 in 10.0 mi WNW 5.8 mph - N/A   Unknown
9:35 PM 41.0 °F 37.1 °F 30.2 °F 65% 30.02 in 10.0 mi NW 5.8 mph - N/A   Unknown
9:55 PM 39.2 °F 37.0 °F 30.2 °F 70% 30.02 in 10.0 mi NW 3.5 mph - N/A   Unknown
10:15 PM 37.4 °F 33.8 °F 28.4 °F 70% 30.02 in 10.0 mi East 4.6 mph - N/A   Unknown
10:35 PM 37.4 °F 32.1 °F 28.4 °F 70% 30.01 in 10.0 mi NE 6.9 mph - N/A   Unknown
10:55 PM 37.4 °F 31.4 °F 28.4 °F 70% 30.01 in 10.0 mi North 8.1 mph - N/A   Unknown
11:15 PM 37.4 °F - 28.4 °F 70% 30.02 in 10.0 mi Calm Calm - N/A   Unknown
11:35 PM 37.4 °F 34.9 °F 30.2 °F 75% 30.02 in 10.0 mi West 3.5 mph - N/A   Unknown
11:55 PM 37.4 °F 32.1 °F 28.4 °F 70% 30.02 in 10.0 mi NW 6.9 mph - N/A   Unknown